ROMMA est une association bénévole à but non lucratif. Votre soutien est indispensable : ADHERER à ROMMA ou FAIRE un DON

Chambon - (38, Isère)

Oisans (2460 m)   Longitude: 06° 10' 42" E   Latitude: 45° 01' 32" N Station partenaire n°803
 

Détail journalier du     <<     >>

Température Humidité Vent Dir Rafale Dir. rafale Neige 1 Neige 2
Heure (°C) (%) (km/h) (km/h) (cm) (cm)
01:00 8.1833NE6NE71
02:00 8.8623NE8NNO60
03:00 9.3423OSO8NO61
04:00 11.5127SSO12SSO31
05:00 11.61010SSO14SSO31
06:00 11.11111SSO15SO41
07:00 10.61414SO21SO41
08:00 11.21313SO19SO30
09:00 12.5146SO13SO41
10:00 13.8163ONO6ONO32
11:00 13.6184O11O52
12:00 14.5175O11O32
13:00 14.5248O16O32
14:00 15.02510O19O22
15:00 16.03210O21O21
16:00 16.03612O28O22
17:00 15.93718O35O32
18:00 15.83621O33O12
19:00 15.33620O34O02
20:00 14.53819O33O02
21:00 12.84115OSO26O31
22:00 11.54410SO17OSO42
23:00 11.74510SO17OSO31
minuit 11.74510SSO22SSO31

Graphique du 04-08-2019

 

Serveur OMMA